Home   Weather   Muttenz   Past weeks

Flag for Switzerland Past Weather in Muttenz, Basel-Land, Switzerland — Yesterday and Last 2 Weeks

Now
36 °F

Passing clouds.


Feels Like: 30 °F
Forecast: 24 / 38 °F
Wind: 7 mph from South

Location: Bale-Mulhouse

Current Time: Dec 10, 2016 at 7:31:56 pm

Latest Report: Dec 10, 2016 at 7:00 pm


Visibility: N/A

Pressure: 30.30 "Hg

Humidity: 75%

Dew Point: 28 °F

Location of MuttenzLocation

Past Weather in Muttenz — Graph

°F

Muttenz Temperature Yesterday

Maximum temperature yesterday: 46 °F (at 2:00 pm)
Minimum temperature yesterday: 28 °F (at 12:30 am)
Average temperature yesterday: 35 °F

High & Low Weather Summary for the Past Weeks

 TemperatureHumidityPressure
High50 °F (Nov 26, 1:00 pm)100% (Nov 26, 4:00 am)30.57 "Hg (Nov 26, 4:00 am)
Low21 °F (Nov 29, 4:00 am)42% (Nov 28, 2:30 pm)30.01 "Hg (Nov 25, 5:00 pm)
Average34 °F87%30.32 "Hg
* Reported Nov 25 5:00 pm — Dec 10 5:30 pm, Muttenz, Weather by CustomWeather, © 2016

Note: Actual official high and low records may vary slightly from our data, if they occured in-between our weather recording intervals... More about our weather records

Advertising

Muttenz Weather History for the Previous 24 Hours

Scroll right to see more
 ConditionsComfort  
Time TempWeatherWind HumidityBarometerVisibility
5:30 pm
Sat, Dec 10
43 °FClear.6 mph61%30.30 "Hg10 mi
5:00 pm43 °FClear.6 mph61%30.30 "Hg10 mi
4:30 pm45 °FSunny.2 mph53%30.30 "Hg10 mi
4:00 pm46 °FSunny.3 mph53%30.30 "Hg10 mi
3:30 pm48 °FPassing clouds.3 mph50%30.30 "HgN/A
3:00 pm48 °FSunny.7 mph50%30.30 "Hg10 mi
2:30 pm48 °FPassing clouds.6 mph54%30.33 "HgN/A
2:00 pm46 °FSunny.7 mph57%30.33 "Hg10 mi
1:30 pm46 °FPassing clouds.5 mph57%30.33 "HgN/A
1:00 pm45 °FSunny.7 mph57%30.36 "Hg10 mi
12:30 pm43 °FSunny.7 mph66%30.36 "Hg10 mi
12:00 pm41 °FPassing clouds.7 mph66%30.36 "HgN/A
11:30 am39 °FPassing clouds.8 mph70%30.39 "HgN/A
11:00 am37 °FSunny.8 mph75%30.39 "Hg10 mi
10:30 am36 °FSunny.8 mph81%30.39 "Hg10 mi
10:00 am36 °FPassing clouds.7 mph81%30.39 "HgN/A
9:30 am34 °FSunny.8 mph81%30.39 "Hg10 mi
9:00 am32 °FSunny.7 mph87%30.36 "Hg10 mi
8:30 am30 °FPassing clouds.6 mph86%30.36 "HgN/A
8:00 am30 °FClear.8 mph93%30.36 "Hg10 mi
7:30 am30 °FClear.8 mph86%30.36 "Hg10 mi
7:00 am30 °FClear.7 mph93%30.36 "Hg10 mi
6:30 am32 °FClear.7 mph87%30.36 "Hg10 mi
6:00 am30 °FClear.7 mph93%30.36 "Hg10 mi
5:30 am32 °FPassing clouds.6 mph87%30.36 "HgN/A
5:00 am30 °FClear.6 mph93%30.36 "Hg10 mi
4:30 am30 °FClear.5 mph93%30.39 "Hg10 mi
4:00 am28 °FClear.6 mph86%30.39 "Hg10 mi
3:30 am32 °FClear.5 mph87%30.39 "Hg10 mi
3:00 am32 °FClear.6 mph80%30.39 "Hg10 mi
2:30 am34 °FClear.6 mph81%30.39 "Hg10 mi
2:00 am34 °FClear.7 mph87%30.39 "Hg10 mi
1:30 am34 °FClear.5 mph81%30.39 "Hg10 mi
1:00 am34 °FClear.6 mph81%30.39 "Hg10 mi
12:30 am34 °FClear.6 mph87%30.39 "Hg10 mi
12:00 am34 °FClear.6 mph87%30.42 "Hg10 mi
11:30 pm
Fri, Dec 9
34 °FClear.6 mph87%30.42 "Hg10 mi
11:00 pm34 °FPassing clouds.5 mph87%30.42 "HgN/A
10:30 pm34 °FPassing clouds.5 mph81%30.42 "HgN/A
10:00 pm36 °FClear.5 mph81%30.45 "Hg10 mi
9:30 pm36 °FPassing clouds.3 mph81%30.45 "HgN/A
9:00 pm37 °FClear.5 mph75%30.45 "Hg10 mi
8:30 pm37 °FClear.6 mph81%30.45 "Hg10 mi
8:00 pm37 °FClear.6 mph81%30.45 "Hg10 mi
7:30 pm36 °FClear.2 mph81%30.45 "Hg10 mi
7:00 pm37 °FPassing clouds.3 mph81%30.45 "HgN/A
Weather by CustomWeather, © 2016

See weather overviewHow to use our weather pages